Location: Coopersdale
(40.3556°N, 78.9372°W)
Time: 13:21:30
(UTC+00:00)

Vanguard 2 - All Passes

Search period start: 23 January 2021 00:00
Search period end: 02 February 2021 00:00
Orbit: 553 x 2937 km, 32.9° (Epoch: 23 January)

Date Brightness Start Highest point End Pass type
(mag) Time Alt. Az. Time Alt. Az. Time Alt. Az.
23 Jan - 00:20:23 10° WSW 00:24:48 39° S 00:31:19 10° ESE visible
23 Jan - 02:27:55 10° WSW 02:33:18 30° SSW 02:41:22 10° SE visible
23 Jan - 04:38:10 10° SW 04:42:38 14° SSW 04:48:07 10° S night (unlit)
23 Jan - 20:26:52 10° SSE 20:27:16 10° SSE 20:27:40 10° SSE daylight
23 Jan - 22:31:08 10° SW 22:34:40 29° SSE 22:39:04 10° ESE daylight
24 Jan - 00:38:06 10° WSW 00:42:31 36° S 00:49:00 10° ESE visible
24 Jan - 02:46:03 10° WSW 02:51:07 23° SSW 02:58:17 10° SSE visible
24 Jan - 20:42:29 10° SSW 20:44:49 15° SSE 20:47:10 10° ESE daylight
24 Jan - 22:48:39 10° WSW 22:52:19 32° S 22:56:54 10° ESE visible
25 Jan - 00:55:55 10° WSW 01:00:15 31° S 01:06:31 10° SE visible
25 Jan - 03:04:34 10° WSW 03:08:56 18° SSW 03:14:40 10° SSE visible
25 Jan - 20:59:25 10° SSW 21:02:24 20° SSE 21:05:26 10° ESE daylight
25 Jan - 23:06:17 10° WSW 23:09:58 33° S 23:14:40 10° ESE visible
26 Jan - 01:13:50 10° WSW 01:18:00 26° SSW 01:23:50 10° SE visible
26 Jan - 03:24:02 10° SW 03:26:46 12° SSW 03:29:55 10° S night (unlit)
26 Jan - 21:16:43 10° SW 21:20:01 25° SSE 21:23:25 10° ESE daylight
26 Jan - 23:23:59 10° WSW 23:27:40 31° S 23:32:20 10° ESE visible
27 Jan - 01:31:58 10° WSW 01:35:46 20° SSW 01:40:47 10° SSE visible
27 Jan - 19:27:33 10° SSW 19:30:01 14° SSE 19:32:15 10° SE daylight
27 Jan - 21:34:11 10° SW 21:37:40 28° S 21:41:16 10° ESE daylight
27 Jan - 23:41:47 10° WSW 23:45:21 27° S 23:49:52 10° SE visible
28 Jan - 01:50:34 10° SW 01:53:32 15° SSW 01:57:10 10° SSE visible
28 Jan - 19:44:20 10° SSW 19:47:40 19° SSE 19:50:36 10° ESE daylight
28 Jan - 21:51:48 10° WSW 21:55:19 29° S 21:59:01 10° ESE daylight
28 Jan - 23:59:43 10° WSW 00:03:02 22° SSW 00:07:11 10° SE visible
29 Jan - 17:55:47 10° S 17:57:20 11° SSE 17:58:45 10° SE daylight
29 Jan - 20:01:33 10° SW 20:05:20 24° S 20:08:36 10° ESE daylight
29 Jan - 22:09:30 10° WSW 22:12:58 29° S 22:16:39 10° ESE daylight
30 Jan - 00:17:53 10° WSW 00:20:44 17° SSW 00:24:10 10° SSE visible
30 Jan - 18:11:28 10° SSW 18:15:04 16° SSE 18:18:01 10° SE daylight
30 Jan - 20:19:00 10° SW 20:23:00 28° S 20:26:26 10° ESE daylight
30 Jan - 22:27:18 10° WSW 22:30:37 25° S 22:34:12 10° SE daylight
31 Jan - 00:36:39 10° SW 00:38:27 12° SSW 00:40:25 10° S visible
31 Jan - 18:28:14 10° SW 18:32:48 21° SSE 18:36:19 10° ESE daylight
31 Jan - 20:36:37 10° WSW 20:40:41 30° S 20:44:11 10° ESE daylight
31 Jan - 22:45:13 10° WSW 22:48:16 21° SSW 22:51:32 10° SE daylight
01 Feb - 16:38:24 10° S 16:42:05 14° SSE 16:45:08 10° SE daylight
01 Feb - 18:45:25 10° SW 18:50:31 27° S 18:54:19 10° ESE daylight
01 Feb - 20:54:20 10° WSW 20:58:20 30° S 21:01:50 10° ESE daylight
01 Feb - 23:03:23 10° WSW 23:05:53 16° SSW 23:08:35 10° SSE visible
